Regional Weather Roundup
Issued by NWS

Home | Current Version | Previous Version | Graphics & Text | Print | Product List | Glossary Off
Versions: 1 2 3 4 5 6 7 8 9 10 11 12 13 14 15 16 17 18 19 20 21 22 23 24 25 26 27 28 29 30 31 32 33 34 35 36 37 38 39 40 41 42 43 44 45 46 47 48 49 50

000
ASUS43 KTOP 280259
RWRKS

WEATHER ROUNDUP FOR KANSAS
NATIONAL WEATHER SERVICE GOODLAND KS
1000 PM CDT SUN JUL 27 2014

NOTE:  "FAIR" INDICATES FEW OR NO CLOUDS BELOW 12,000 FEET WITH NO
SIGNIFICANT WEATHER AND/OR OBSTRUCTIONS TO VISIBILITY.

KSZ001>006-013>018-027>032-041>047-280400-
NORTHWEST KANSAS

CITY           SKY/WX    TMP DP  RH WIND       PRES   REMARKS
GOODLAND       PTCLDY    69  52  54 SE8       30.30R
HAYS           CLEAR     73  52  46 NE10      30.21R
HILL CITY      CLEAR     73  53  49 NE6       30.21R
RUSSELL        CLEAR     74  50  42 NE7       30.18R
$$

KSZ061>065-074>080-084>089-280400-
SOUTHWEST KANSAS

CITY           SKY/WX    TMP DP  RH WIND       PRES   REMARKS
DODGE CITY     CLEAR     70  58  65 CALM      30.23R
ELKHART          N/A    N/A N/A N/A MISG        N/A
GARDEN CITY    CLEAR     73  55  53 E6        30.24R
GREAT BEND     CLEAR     73  55  53 NE6       30.18R
LIBERAL        PTCLDY    75  55  50 SE7       30.26R
$$

KSZ066>073-081>083-090>101-280400-
SOUTHEAST KANSAS

CITY           SKY/WX    TMP DP  RH WIND       PRES   REMARKS
CHANUTE        CLEAR     75  57  53 N6        30.09R
COFFEYVILLE    CLEAR     75  74  96 W3        30.07R FOG
HUTCHINSON     CLEAR     75  56  51 NE3       30.16R
MEDICINE LODGE   N/A     76  68  76 N3        30.16R
NEWTON         CLEAR     72  50  46 N9        30.18R
PARSONS        CLEAR     68  64  87 CALM      30.09R
WICHITA INTL   PTCLDY    80  52  37 N8        30.13R
WICHITA JABRA  CLEAR     71  54  54 N9        30.13R
WINFIELD       CLEAR     73  69  87 NE3       30.13R
$$

KSZ007>012-019>026-033>040-048>060-102>105-280400-
NORTHEAST KANSAS

CITY           SKY/WX    TMP DP  RH WIND       PRES   REMARKS
CONCORDIA      CLEAR     74  55  51 N3        30.17R
EMPORIA        CLEAR     74  54  49 N7        30.13R
LAWRENCE       CLEAR     72  58  61 N9        30.11R
MANHATTAN      CLEAR     75  58  55 N3        30.14R
OLATHE IND     CLEAR     72  59  63 N9        30.11R
OLATHE EXE     CLEAR     76  57  51 N9        30.10R
SALINA         CLEAR     80  53  39 NE8       30.16R
TOPEKA BILLARD CLEAR     74  58  57 N8        30.12R
TOPEKA FORBES  CLEAR     76  57  51 N7        30.12R
$$



USA.gov is the U.S. government's official web portal to all federal, state and local government web resources and services.